Weather History for McCook, NE

Change the Weather History Date:

Wednesday, May 7, 2014

  Actual Average Record
Temperature  
Mean Temperature 69 °F 57 °F  
Max Temperature 84 °F 71 °F 99 °F (1916)
Min Temperature 53 °F 43 °F 30 °F (1917)
Cooling Degree Days 3    
Growing Degree Days 18 (Base 50)    
Moisture  
Dew Point 52 °F    
Average Humidity 61    
Maximum Humidity 86    
Minimum Humidity 36    
Precipitation  
Precipitation 0.00 in 0.09 in 1.09 in (1969)
Month to date precipitation T 0.67  
Year to date precipitation 1.86 5.47  
Sea Level Pressure  
Sea Level Pressure 29.51 in    
Wind  
Wind Speed 11 mph (NE)    
Max Wind Speed 31 mph    
Max Gust Speed 41 mph    
Visibility 9 miles    
Events Thunderstorm    
T = Trace of Precipitation, MM = Missing Value Source: NWS Daily Summary

Daily Weather History Graph

Daily Weather History Graph

Search for Another Location

Airport:

Trip Planner

Search our weather history database for the weather conditions in past years. The results will help you decide how hot, cold, wet, or windy it might be!

Date:

Astronomy

May. 07, 2014 Rise Set
Actual Time 6:34 AM CDT 8:43 PM CDT
Civil Twilight 6:04 AM CDT 9:13 PM CDT
Nautical Twilight 5:28 AM CDT 9:50 PM CDT
Astronomical Twilight 4:47 AM CDT 10:30 PM CDT
Moon 1:49 PM CDT (5/7) 2:35 AM CDT (5/7)
Length of Visible Light 15h 08m
Length of Day
14h 08m
First Quarter, 55% of the Moon is Illuminated
May 7
First Quarter
May 14
Full
May 21
Last Quarter
May 28
New
Jun 5
First Quarter

Hourly Weather History & Observations

Time (CDT) Temp. Heat Index Dew Point Humidity Pressure Visibility Wind Dir Wind Speed Gust Speed Precip Events Conditions
12:53 AM 57.0 °F - 50.0 °F 77% 29.46 in 9.0 mi ENE 6.9 mph - N/A   Clear
1:53 AM 54.0 °F - 50.0 °F 86% 29.46 in 8.0 mi NE 6.9 mph - N/A   Clear
2:53 AM 55.0 °F - 50.0 °F 83% 29.42 in 8.0 mi NNE 8.1 mph - N/A   Clear
3:53 AM 55.9 °F - 51.1 °F 84% 29.43 in 8.0 mi NE 3.5 mph - N/A   Clear
4:53 AM 55.9 °F - 51.1 °F 84% 29.47 in 7.0 mi NNW 13.8 mph - N/A   Clear
5:53 AM 54.0 °F - 48.9 °F 83% 29.47 in 8.0 mi North 13.8 mph - N/A   Clear
6:53 AM 54.0 °F - 48.9 °F 83% 29.50 in 7.0 mi North 12.7 mph - N/A   Clear
7:53 AM 55.9 °F - 50.0 °F 80% 29.54 in 7.0 mi North 12.7 mph - N/A   Clear
8:53 AM 60.1 °F - 51.1 °F 72% 29.54 in 8.0 mi North 15.0 mph - N/A   Clear
9:53 AM 64.0 °F - 52.0 °F 65% 29.56 in 9.0 mi NNE 12.7 mph - N/A   Clear
10:53 AM 68.0 °F - 53.1 °F 59% 29.56 in 9.0 mi ENE 11.5 mph 18.4 mph N/A   Clear
11:53 AM 73.4 °F - 55.4 °F 53% 29.61 in 10.0 mi NE 13.8 mph 23.0 mph N/A   Clear
12:53 PM 77.0 °F - 55.9 °F 48% 29.56 in 10.0 mi NE 9.2 mph - N/A   Clear
1:53 PM 78.1 °F - 55.0 °F 45% 29.55 in 10.0 mi North - - N/A   Clear
2:53 PM 81.0 °F 80.7 °F 55.0 °F 41% 29.54 in 10.0 mi Variable 5.8 mph - N/A   Clear
3:53 PM 80.1 °F 79.9 °F 53.1 °F 39% 29.52 in 10.0 mi Variable 4.6 mph - N/A   Clear
4:53 PM 82.9 °F 81.8 °F 53.1 °F 36% 29.48 in 10.0 mi East 11.5 mph 16.1 mph N/A   Clear
5:48 PM 78.8 °F - 51.8 °F 39% 29.50 in 10.0 mi East 12.7 mph - N/A Thunderstorm Thunderstorm
5:53 PM 78.1 °F - 52.0 °F 40% 29.44 in 10.0 mi ENE 10.4 mph - N/A Thunderstorm Thunderstorm
6:32 PM 78.1 °F - 52.0 °F 40% 29.51 in 10.0 mi East 10.4 mph - N/A Thunderstorm Scattered Clouds
6:46 PM 77.0 °F - 53.1 °F 43% 29.51 in 10.0 mi ENE 8.1 mph - N/A   Clear
6:53 PM 77.0 °F - 54.0 °F 45% 29.45 in 10.0 mi ENE 6.9 mph - N/A   Clear
7:53 PM 75.9 °F - 54.0 °F 46% 29.46 in 10.0 mi North 12.7 mph - N/A   Clear
8:53 PM 64.0 °F - 51.1 °F 63% 29.51 in 10.0 mi North 16.1 mph - N/A   Clear
9:53 PM 63.0 °F - 52.0 °F 67% 29.54 in 10.0 mi NNE 24.2 mph 32.2 mph N/A   Clear
10:53 PM 62.1 °F - 51.1 °F 67% 29.56 in 10.0 mi NNE 21.9 mph - N/A   Clear
11:53 PM 61.0 °F - 50.0 °F 67% 29.56 in 10.0 mi NE 31.1 mph 41.4 mph N/A   Partly Cloudy